Home   Weather   Potsdam   Past weeks

Flag for Germany Past Weather in Potsdam, Brandenburg, Germany — Yesterday and Last 2 Weeks

Now
75 °F

Sunny.


Feels Like: 78 °F
Forecast: 55 / 65 °F
Wind: 10 mph from Southwest

Location: Berlin-Tegel

Current Time: Sep 29, 2016 at 7:13:16 PM

Latest Report: Sep 29, 2016 at 6:20 PM


Visibility: 10 mi

Pressure: 29.83 "Hg

Humidity: 41%

Dew Point: 50 °F

Location of PotsdamLocation

Past Weather in Potsdam — Graph

°F

Potsdam Temperature Yesterday

Maximum temperature yesterday: 70 °F (at 1:20 PM)
Minimum temperature yesterday: 54 °F (at 4:20 AM)
Average temperature yesterday: 62 °F

High & Low Weather Summary for the Past Weeks

 TemperatureHumidityPressure
High82 °F (Sep 14, 5:20 PM)94% (Sep 24, 3:20 AM)30.30 "Hg (Sep 24, 3:20 AM)
Low45 °F (Sep 20, 6:50 AM)28% (Sep 15, 5:20 PM)29.83 "Hg (Sep 16, 5:50 PM)
Average62 °F62%30.09 "Hg
* Reported Sep 14 5:20 PM — Sep 29 5:50 PM, Potsdam, Weather by CustomWeather, © 2016

Note: Actual official high and low records may vary slightly from our data, if they occured in-between our weather recording intervals... More about our weather records

Advertising

Potsdam Weather History for the Previous 24 Hours

Scroll right to see more
 ConditionsComfort  
Time TempWeatherWind HumidityBarometerVisibility
5:50 PM
Thu, Sep 29
75 °FSunny.13 mph39%29.83 "Hg10 mi
5:20 PM75 °FSunny.14 mph36%29.83 "Hg10 mi
4:50 PM77 °FSunny.17 mph32%29.86 "Hg10 mi
4:20 PM77 °FSunny.16 mph32%29.86 "Hg10 mi
3:50 PM77 °FPassing clouds.17 mph34%29.86 "HgN/A
3:20 PM79 °FSunny.17 mph32%29.86 "Hg10 mi
2:50 PM77 °FSunny.18 mph34%29.89 "Hg10 mi
2:20 PM77 °FPassing clouds.17 mph34%29.89 "HgN/A
1:50 PM77 °FPassing clouds.20 mph30%29.92 "HgN/A
1:20 PM77 °FPassing clouds.16 mph32%29.95 "HgN/A
12:50 PM77 °FPassing clouds.20 mph30%29.95 "HgN/A
12:20 PM75 °FPassing clouds.17 mph34%29.95 "HgN/A
11:50 AM72 °FPassing clouds.14 mph44%29.98 "HgN/A
11:20 AM70 °FSunny.12 mph46%29.98 "Hg10 mi
10:50 AM70 °FBroken clouds.14 mph53%30.01 "HgN/A
10:20 AM68 °FBroken clouds.13 mph64%30.01 "HgN/A
9:50 AM66 °FPartly sunny.14 mph64%30.01 "HgN/A
9:20 AM64 °FBroken clouds.14 mph68%30.04 "HgN/A
8:50 AM64 °FPartly sunny.12 mph68%30.04 "HgN/A
8:20 AM63 °FPartly sunny.10 mph73%30.04 "HgN/A
7:50 AM63 °FPartly sunny.9 mph73%30.04 "HgN/A
7:20 AM63 °FPartly sunny.10 mph73%30.04 "HgN/A
6:50 AM61 °FPassing clouds.9 mph72%30.04 "HgN/A
6:20 AM61 °FPartly cloudy.7 mph72%30.07 "HgN/A
5:50 AM61 °FPartly cloudy.9 mph72%30.07 "HgN/A
5:20 AM61 °FPartly cloudy.8 mph72%30.07 "HgN/A
4:50 AM61 °FPassing clouds.9 mph72%30.07 "HgN/A
4:20 AM63 °FClear.9 mph68%30.07 "Hg10 mi
3:50 AM63 °FClear.8 mph68%30.09 "Hg10 mi
3:20 AM63 °FClear.7 mph68%30.09 "Hg10 mi
2:50 AM63 °FClear.8 mph68%30.09 "Hg10 mi
2:20 AM63 °FPassing clouds.9 mph68%30.09 "HgN/A
1:50 AM64 °FClear.12 mph64%30.09 "Hg10 mi
1:20 AM64 °FClear.12 mph64%30.12 "Hg10 mi
12:50 AM64 °FClear.13 mph64%30.12 "Hg10 mi
12:20 AM64 °FClear.10 mph64%30.12 "Hg10 mi
11:50 PM
Wed, Sep 28
63 °FClear.9 mph68%30.12 "Hg10 mi
11:20 PM64 °FClear.10 mph64%30.12 "Hg10 mi
10:50 PM64 °FClear.12 mph64%30.12 "Hg10 mi
10:20 PM64 °FClear.12 mph64%30.12 "Hg10 mi
9:50 PM64 °FClear.13 mph64%30.12 "Hg10 mi
9:20 PM64 °FClear.14 mph64%30.12 "Hg10 mi
8:50 PM64 °FClear.13 mph64%30.09 "Hg10 mi
8:20 PM66 °FClear.13 mph60%30.09 "Hg10 mi
7:50 PM66 °FClear.13 mph60%30.09 "Hg10 mi
7:20 PM64 °FClear.13 mph64%30.09 "Hg10 mi
Weather by CustomWeather, © 2016

See weather overviewHow to use our weather pages